Birmingham, AL

8:48 AM CST on December 04, 2016 (GMT -0600)
Birmingham International

Weather History for KBHM - December, 2013

Change the Weather History Date:

Tuesday, December 10, 2013

  Actual Average Record
Temperature  
Mean Temperature 40 °F 47 °F  
Max Temperature 52 °F 57 °F 79 °F (2007)
Min Temperature 28 °F 37 °F 13 °F (1995)
Degree Days  
Heating Degree Days 25 18  
Month to date heating degree days 128 170  
Since 1 July heating degree days 656 628  
Moisture  
Dew Point 34 °F    
Average Humidity 77    
Maximum Humidity 100    
Minimum Humidity 53    
Precipitation  
Precipitation 0.55 in 0.16 in 1.85 in (2008)
Month to date precipitation 3.75 1.61  
Year to date precipitation 64.56 50.88  
Snow  
Snow 0.00 in 0.00 in - ()
Month to date snowfall 0.0 0.0  
Since 1 July snowfall 0.0 0.0  
Snow Depth 0.00 in    
Sea Level Pressure  
Sea Level Pressure 30.25 in    
Wind  
Wind Speed 7 mph (NNW)    
Max Wind Speed 20 mph    
Max Gust Speed 25 mph    
Visibility 7 miles    
Events Rain    
T = Trace of Precipitation, MM = Missing Value Source: NWS Daily Summary

Daily Weather History Graph

Daily Weather History Graph

Search for Another Location

Airport or City:

Trip Planner

Search our weather history database for the weather conditions in past years. The results will help you decide how hot, cold, wet, or windy it might be!

Date:

Astronomy

Dec. 10, 2013 Rise Set
Actual Time 6:40 AM CST 4:39 PM CST
Civil Twilight 6:13 AM CST 5:06 PM CST
Nautical Twilight 5:42 AM CST 5:37 PM CST
Astronomical Twilight 5:11 AM CST 6:07 PM CST
Moon 12:25 PM CST (12/10) 12:14 AM CST (12/10)
Length of Visible Light 10h 53m
Length of Day
9h 58m
Waxing Gibbous, 62% of the Moon is Illuminated
Dec 10
Waxing Gibbous
Dec 17
Full
Dec 25
Last Quarter
Jan 1
New
Jan 7
First Quarter

Hourly Weather History & Observations

Time (CST) Temp. Windchill Dew Point Humidity Pressure Visibility Wind Dir Wind Speed Gust Speed Precip Events Conditions
12:32 AM 42.8 °F 37.0 °F 39.2 °F 87% 30.08 in 3.0 mi NNW 10.4 mph - 0.00 in Rain Light Rain
12:53 AM 41.0 °F 34.7 °F 39.9 °F 96% 30.10 in 3.0 mi NNW 10.4 mph - 0.01 in Rain Light Rain
1:08 AM 39.2 °F 35.9 °F 39.2 °F 100% 30.08 in 1.2 mi East 4.6 mph - 0.15 in Rain Heavy Rain
1:14 AM 39.2 °F 37.0 °F 39.2 °F 100% 30.07 in 2.0 mi ESE 3.5 mph - 0.21 in Rain Rain
1:17 AM 39.2 °F 37.0 °F 39.2 °F 100% 30.06 in 3.0 mi ESE 3.5 mph - 0.22 in Rain Rain
1:41 AM 41.0 °F 36.4 °F 41.0 °F 100% 30.09 in 2.5 mi NW 6.9 mph - 0.25 in Rain Heavy Rain
1:50 AM 41.0 °F 33.9 °F 39.2 °F 93% 30.11 in 2.5 mi WNW 12.7 mph - 0.29 in Rain Heavy Rain
1:53 AM 39.9 °F 34.5 °F 39.9 °F 100% 30.10 in 2.0 mi WNW 8.1 mph - 0.31 in Rain Heavy Rain
2:11 AM 39.2 °F 33.6 °F 39.2 °F 100% 30.10 in 1.8 mi NW 8.1 mph - 0.18 in Rain Heavy Rain
2:13 AM 39.2 °F 33.6 °F 39.2 °F 100% 30.10 in 2.0 mi NW 8.1 mph - 0.19 in Rain Rain
2:42 AM 39.2 °F 34.2 °F 39.2 °F 100% 30.11 in 6.0 mi NW 6.9 mph - 0.23 in Rain Light Rain
2:53 AM 39.0 °F 34.8 °F 39.0 °F 100% 30.11 in 10.0 mi NW 5.8 mph - 0.23 in   Overcast
3:53 AM 39.0 °F 35.7 °F 37.9 °F 96% 30.12 in 8.0 mi NNW 4.6 mph - N/A   Overcast
4:26 AM 37.4 °F 32.8 °F 37.4 °F 100% 30.13 in 6.0 mi WNW 5.8 mph - N/A   Overcast
4:53 AM 37.9 °F 32.1 °F 37.0 °F 97% 30.14 in 10.0 mi WNW 8.1 mph - N/A   Overcast
5:53 AM 37.0 °F 28.1 °F 37.0 °F 100% 30.18 in 10.0 mi WNW 15.0 mph - N/A   Overcast
6:53 AM 36.0 °F 28.5 °F 36.0 °F 100% 30.22 in 6.0 mi WNW 10.4 mph - N/A   Overcast
7:53 AM 35.1 °F 24.8 °F 35.1 °F 100% 30.30 in 5.0 mi NW 17.3 mph 24.2 mph N/A   Overcast
8:00 AM 35.6 °F 27.1 °F 35.6 °F 100% 30.30 in 3.0 mi NW 12.7 mph 21.9 mph N/A   Overcast
8:53 AM 35.1 °F 25.5 °F 33.1 °F 92% 30.35 in 6.0 mi NW 15.0 mph - N/A   Overcast
9:35 AM 35.6 °F 25.5 °F 32.0 °F 87% 30.36 in 7.0 mi NNW 17.3 mph 23.0 mph N/A   Overcast
9:53 AM 35.1 °F 27.9 °F 30.9 °F 85% 30.37 in 7.0 mi NNW 9.2 mph 21.9 mph N/A   Overcast
10:53 AM 36.0 °F 28.0 °F 32.0 °F 86% 30.38 in 10.0 mi NNW 11.5 mph 18.4 mph N/A   Overcast
11:53 AM 37.9 °F 30.9 °F 30.9 °F 76% 30.37 in 10.0 mi NNW 10.4 mph - N/A   Mostly Cloudy
12:14 PM 37.4 °F 30.8 °F 30.2 °F 75% 30.36 in 10.0 mi North 9.2 mph - N/A   Scattered Clouds
12:53 PM 41.0 °F 34.7 °F 30.0 °F 65% 30.36 in 10.0 mi NNW 10.4 mph - N/A   Partly Cloudy
1:53 PM 42.1 °F 36.6 °F 28.9 °F 60% 30.35 in 10.0 mi NNW 9.2 mph - N/A   Scattered Clouds
2:53 PM 44.1 °F 38.1 °F 28.9 °F 55% 30.35 in 10.0 mi NNW 11.5 mph - N/A   Mostly Cloudy
3:53 PM 42.1 °F 37.1 °F 28.0 °F 58% 30.36 in 10.0 mi North 8.1 mph - N/A   Scattered Clouds
4:53 PM 37.9 °F 34.4 °F 28.0 °F 68% 30.37 in 10.0 mi North 4.6 mph - N/A   Scattered Clouds
5:53 PM 36.0 °F 33.3 °F 28.9 °F 76% 30.38 in 10.0 mi North 3.5 mph - N/A   Clear
6:53 PM 35.1 °F - 28.9 °F 78% 30.41 in 10.0 mi Calm Calm - N/A   Clear
7:53 PM 32.0 °F - 28.0 °F 85% 30.39 in 10.0 mi Calm Calm - N/A   Clear
8:53 PM 32.0 °F - 28.0 °F 85% 30.39 in 10.0 mi Calm Calm - N/A   Clear
9:53 PM 30.9 °F - 27.0 °F 85% 30.39 in 10.0 mi Calm Calm - N/A   Clear
10:53 PM 30.0 °F - 26.1 °F 85% 30.38 in 10.0 mi Calm Calm - N/A   Clear
11:53 PM 28.0 °F 24.2 °F 25.0 °F 88% 30.40 in 10.0 mi North 3.5 mph - N/A   Clear